GEESAT-3 01

Last updated on Fri Oct 04 2024 00:02:04 GMT+0000 (Coordinated Universal Time)

1 61011U 24159A 24276.80915879 .00079382 00000+0 76559-2 0 9990 2 61011 49.9989 112.0901 0018971 337.7416 22.2989 14.91990110 18
UTC large
Height (km)
Speed (km/s)
/
Latitude / Longitude
Inclination (degrees)
Orbital Period (minutes)
Azimuth
Elevation
Range (km)
Doppler Factor

Next 0 passes for location: London (51.5072 / 0.1276)

Sorry there are no passes over London.